Regional Weather Roundup
Issued by NWS

Home | Current Version | Previous Version | Graphics & Text | Print | Product List | Glossary On
Versions: 1 2 3 4 5 6 7 8 9 10 11 12 13 14 15 16 17 18 19 20 21 22 23 24 25 26 27 28
000
ASUS45 KBOI 220510
RWRID
WEATHER ROUNDUP FOR IDAHO
NATIONAL WEATHER SERVICE BOISE ID
1100 PM MDT MON APR 21 2014

NOTE: "FAIR" INDICATES FEW OR NO CLOUDS BELOW 12000 FEET
WITH NO SIGNIFICANT WEATHER AND/OR OBSTRUCTIONS TO VISIBILITY

IDZ012-014-220600-
SOUTHWEST IDAHO


CITY           SKY/WX    TMP DP  RH WIND       PRES   REMARKS
BOISE          CLOUDY    63  30  28 SE9       29.80F
CALDWELL       CLOUDY    55  34  44 CALM      29.80F
MOUNTAIN HOME  CLOUDY    57  28  33 NE5       29.82F
$$

IDZ016-017-220600-
SOUTHCENTRAL IDAHO


CITY           SKY/WX    TMP DP  RH WIND       PRES   REMARKS
BURLEY         CLOUDY    62  35  36 W7        29.91F
JEROME         MOCLDY    57  32  38 E12       29.89F
TWIN FALLS     CLOUDY    61  34  36 S10       29.89F
$$

IDZ019>023-220600-
SOUTHEAST IDAHO


CITY           SKY/WX    TMP DP  RH WIND       PRES   REMARKS
IDAHO FALLS    CLOUDY    58  31  35 SW3       29.94F
POCATELLO      CLOUDY    62  25  24 W9        29.94S
REXBURG        CLOUDY    59  24  26 SE5       29.94F
$$

IDZ006-010-011-018-031-032-220600-
CENTRAL IDAHO MOUNTAINS


CITY           SKY/WX    TMP DP  RH WIND       PRES   REMARKS
MCCALL         PTCLDY    43  28  55 CALM      29.87F
HAILEY         CLOUDY    55  25  30 SE7       29.96F
STANLEY          N/A     42  24  49 SE5       29.98F
SALMON         MOCLDY    57  21  24 SE3       29.85R
CHALLIS        MOCLDY    54  18  24 NE6       29.91S
$$

IDZ002-004-006-007-026-220600-
NORTHERN IDAHO


CITY           SKY/WX    TMP DP  RH WIND       PRES   REMARKS
LEWISTON       PTCLDY    57  38  48 SE5       29.72F
LOWELL           N/A     49  44  83 NW5       29.83S
COEUR D`ALENE  MOCLDY    50  36  57 N14       29.81F
MULLAN PASS    PTCLDY    43  25  49 SE6       29.90F
$$



USA.gov is the U.S. government's official web portal to all federal, state and local government web resources and services.